#timestamp,LO_Frequency,Hit 
1501873215.4,286046956.1,N
1501873235.2,286046960.6,N
1501873255.0,286046958.7,N
1501873255.9,286046958.7,N
1501873275.8,286046956.7,N
1501873295.6,286046959.3,N
1501873315.4,286046956.9,N
1501873335.3,286046957.7,N
1501873355.1,286046959.1,N
1501873375.8,286046959.3,N
1501873395.7,286046959.0,N
1501873415.5,286046962.3,N
1501873435.3,286046960.7,N
1501873455.2,286046958.4,N
1501873475.9,286046960.0,N
1501873495.7,286046959.8,N
1501873515.6,286046958.2,N
1501873535.4,286046961.2,N
1501873555.2,286046959.0,N
1501873575.0,286046958.9,N
1501873575.9,286046958.9,N
1501873595.8,286046959.1,N
1501873615.6,286046960.9,N
1501873635.4,286046958.2,N
1501873655.3,286046956.9,N
1501873675.1,286046958.5,N
1501873695.8,286046960.2,N
1501873715.7,286046959.9,N
1501873735.5,286046960.5,N
1501873755.3,286046959.1,N
1501873775.2,286046956.7,N
1501873795.9,286046957.1,N
1501873815.7,286046960.4,N
1501873835.5,286046962.2,N
1501873855.4,286046959.7,N
1501873875.2,286046962.1,N
1501873895.0,286046962.5,N
1501873895.9,286046962.5,N
1501873915.8,286046961.8,N
1501873935.6,286046964.2,N
1501873955.4,286046963.5,N
1501873975.3,286046963.2,N
1501873995.1,286046962.1,N
1501873996.0,286046962.1,N
1501874015.8,286046960.8,N
1501874035.7,286046960.2,N
1501874055.5,286046961.5,N
1501874075.3,286046964.2,N
1501874095.2,286046964.1,N
1501874115.9,286046964.1,N
1501874135.7,286046961.3,N
1501874155.5,286046961.8,N
1501874175.4,286046962.8,N
1501874195.2,286046964.3,N
1501874215.0,286046964.4,N
1501874215.9,286046964.4,N
1501874235.8,286046964.4,N
1501874255.6,286046962.2,N
1501874275.4,286046963.9,N
1501874295.3,286046961.7,N
1501874315.1,286046961.5,N
1501874316.0,286046961.5,N
1501874335.8,286046963.6,N
1501874355.7,286046964.9,N
1501874375.5,286046963.8,N
1501874395.3,286046963.2,N
1501874415.2,286046963.6,N
1501874435.9,286046963.7,N
1501874455.7,286046963.5,N
1501874475.5,286046963.5,N
1501874495.4,286046963.4,N
1501874515.2,286046964.6,N
1501874535.0,286046963.5,N
1501874535.9,286046963.5,N
1501874555.8,286046964.4,N
1501874575.6,286046964.4,N
1501874595.4,286046968.9,N
1501874615.3,286046973.5,N
1501874635.1,286046974.0,N
1501874636.0,286046974.0,N
1501874655.8,286046970.9,N
1501874675.7,286046975.5,N
1501874695.5,286046972.7,N
1501874715.3,286046975.6,N
1501874735.1,286046975.1,N
1501874755.9,286046975.5,N
1501874775.7,286046974.3,N
1501874795.5,286046974.1,N
1501874815.4,286046974.8,N
1501874835.2,286046972.5,N
1501874855.0,286046973.0,N
1501874855.9,286046973.0,N
1501874875.8,286046975.2,N
1501874895.6,286046973.3,N
1501874915.4,286046973.3,N
1501874935.3,286046973.9,N
1501874955.1,286046970.5,N
1501874956.0,286046970.5,N
1501874975.8,286046971.8,N
1501874995.7,286046970.2,N
1501875015.5,286046970.2,N
1501875035.3,286046968.0,N
1501875055.1,286046970.5,N
1501875075.9,286046968.0,N
1501875095.7,286046970.4,N
1501875115.5,286046970.3,N
1501875135.4,286046969.0,N
1501875155.2,286046966.3,N
1501875175.0,286046967.0,N
1501875175.9,286046967.0,N
1501875195.8,286046968.6,N
1501875215.6,286046967.9,N
1501875235.4,286046970.7,N
1501875255.3,286046968.2,N
1501875275.1,286046971.5,N
1501875276.0,286046971.5,N
1501875295.8,286046971.0,N
1501875315.6,286046973.2,N
1501875335.5,286046971.8,N
1501875355.3,286046970.4,N
1501875375.1,286046970.1,N
1501875395.9,286046971.4,N
1501875415.7,286046971.8,N
1501875435.5,286046972.4,N
1501875455.4,286046969.6,N
1501875475.2,286046969.9,N
1501875495.0,286046969.5,N
1501875495.9,286046969.5,N
1501875515.8,286046969.8,N
1501875535.6,286046970.2,N
1501875555.4,286046969.9,N
1501875575.3,286046970.2,N
1501875595.1,286046969.8,N
1501875596.0,286046969.8,N
1501875615.8,286046971.2,N
1501875635.6,286046971.7,N
1501875655.5,286046969.7,N
1501875675.3,286046969.7,N
1501875695.1,286046969.4,N
1501875715.9,286046969.7,N
1501875735.7,286046971.9,N
1501875755.5,286046971.7,N
1501875775.4,286046970.3,N
1501875795.2,286046969.4,N
1501875815.0,286046969.6,N
1501875815.9,286046969.6,N
1501875835.8,286046970.5,N
1501875855.6,286046969.4,N
1501875875.4,286046971.7,N
1501875895.2,286046972.1,N
1501875915.1,286046971.5,N
1501875916.0,286046971.5,N
1501875935.8,286046971.3,N
1501875955.6,286046973.4,N
1501875975.5,286046973.5,N
1501875995.3,286046973.3,N
1501876015.1,286046974.7,N
1501876035.9,286046974.7,N
1501876055.7,286046972.8,N
1501876075.5,286046973.3,N
1501876095.4,286046973.6,N
1501876115.2,286046973.7,N
1501876135.0,286046972.7,N
1501876135.9,286046972.7,N
1501876155.8,286046972.8,N
1501876175.6,286046975.5,N
1501876195.4,286046975.2,N
1501876215.2,286046975.4,N
1501876235.1,286046973.1,N
1501876236.0,286046973.1,N
1501876255.8,286046972.8,N
1501876275.6,286046974.8,N
1501876295.5,286046977.1,N
1501876315.3,286046977.1,N
1501876335.1,286046974.4,N
1501876355.9,286046974.4,N
1501876375.7,286046976.8,N
1501876395.5,286046975.0,N
1501876415.4,286046975.1,N
1501876435.2,286046975.3,N
1501876455.0,286046975.4,N
1501876455.9,286046975.4,N
1501876475.7,286046975.0,N
1501876495.6,286046975.1,N
1501876515.4,286046974.3,N
1501876535.2,286046974.6,N
1501876555.1,286046976.6,N
1501876556.0,286046976.6,N
1501876575.8,286046976.6,N
1501876595.6,286046978.5,N
1501876615.5,286046977.6,N
1501876635.3,286046977.6,N
1501876655.1,286046976.2,N
1501876675.9,286046975.8,N
1501876695.7,286046977.9,N
1501876715.5,286046978.4,N
1501876735.3,286046977.6,N
1501876755.2,286046978.3,N
1501876775.0,286046978.1,N
1501876775.9,286046978.1,N
1501876795.7,286046978.0,N
